Location: Oshawa
(43.9000°N, 78.8670°W)
Time: 21:24:39
(UTC-04:00)

Cosmos 1821 Rocket - Visible Passes

Search period start: 01 May 2016 00:00
Search period end: 11 May 2016 00:00
Orbit: 945 x 1005 km, 82.9° (Epoch: 01 May)

Date Brightness Start Highest point End Pass type
(mag) Time Alt. Az. Time Alt. Az. Time Alt. Az.
01 May 5.8 22:18:44 10° NNW 22:23:54 28° W 22:29:07 10° SW visible
02 May 4.0 20:57:59 10° N 21:04:16 83° E 21:10:37 10° S visible
02 May 6.5 22:45:19 10° NW 22:48:48 16° W 22:52:18 10° WSW visible
03 May 4.7 21:23:24 10° NNW 21:29:32 57° W 21:35:42 10° S visible
04 May 5.7 21:49:09 10° NNW 21:54:38 32° W 22:00:09 10° SSW visible
05 May 6.5 22:15:27 10° NW 22:19:34 18° W 22:23:41 10° WSW visible
06 May 4.5 20:53:57 10° NNW 21:00:12 67° W 21:06:29 10° S visible
07 May 5.5 21:19:37 10° NNW 21:25:20 38° W 21:31:06 10° SSW visible
08 May 6.4 21:45:43 10° NW 21:50:19 22° W 21:54:56 10° SW visible
09 May 6.9 22:13:08 10° WNW 22:15:07 12° WNW 22:17:07 10° W visible
